TimeCDT,TemperatureF,Dew PointF,Humidity,Sea Level PressureIn,VisibilityMPH,Wind Direction,Wind SpeedMPH,Gust SpeedMPH,PrecipitationIn,Events,Conditions,WindDirDegrees,DateUTC
12:53 AM,71.1,50.0,47,29.78,10.0,SSE,9.2,20.7,N/A,,Clear,160,2013-05-26 05:53:00
1:53 AM,70.0,57.0,63,29.77,10.0,South,10.4,18.4,N/A,,Clear,170,2013-05-26 06:53:00
2:53 AM,68.0,59.0,73,29.77,10.0,SE,11.5,19.6,N/A,,Clear,140,2013-05-26 07:53:00
3:53 AM,66.9,60.1,79,29.75,10.0,East,5.8,-,N/A,,Clear,100,2013-05-26 08:53:00
4:53 AM,66.0,60.1,81,29.75,10.0,Calm,Calm,-,N/A,,Clear,0,2013-05-26 09:53:00
5:53 AM,64.9,61.0,87,29.75,10.0,South,10.4,-,N/A,,Clear,170,2013-05-26 10:53:00
6:53 AM,64.0,61.0,90,29.76,9.0,SSE,5.8,-,N/A,,Partly Cloudy,150,2013-05-26 11:53:00
7:53 AM,66.0,62.1,87,29.75,10.0,South,9.2,-,N/A,,Clear,180,2013-05-26 12:53:00
8:53 AM,68.0,62.1,81,29.77,10.0,South,12.7,-,N/A,,Partly Cloudy,170,2013-05-26 13:53:00
9:53 AM,72.0,62.1,71,29.77,10.0,South,8.1,-,N/A,,Clear,190,2013-05-26 14:53:00
10:53 AM,75.0,61.0,62,29.78,10.0,South,4.6,-,N/A,,Clear,170,2013-05-26 15:53:00
11:53 AM,78.1,61.0,56,29.77,10.0,SE,9.2,-,N/A,,Clear,140,2013-05-26 16:53:00
12:53 PM,77.0,64.9,66,29.76,10.0,East,16.1,-,N/A,,Partly Cloudy,100,2013-05-26 17:53:00
1:53 PM,79.0,64.9,62,29.75,10.0,ESE,15.0,-,N/A,,Mostly Cloudy,110,2013-05-26 18:53:00
2:53 PM,81.0,64.0,56,29.73,10.0,East,12.7,16.1,N/A,,Scattered Clouds,100,2013-05-26 19:53:00
3:53 PM,84.0,64.9,53,29.71,10.0,East,10.4,-,N/A,,Scattered Clouds,100,2013-05-26 20:53:00
4:53 PM,84.9,63.0,48,29.68,10.0,East,13.8,-,N/A,,Clear,100,2013-05-26 21:53:00
5:53 PM,86.0,64.0,48,29.67,10.0,East,11.5,-,N/A,,Clear,90,2013-05-26 22:53:00
6:53 PM,86.0,63.0,46,29.65,10.0,East,12.7,-,N/A,,Clear,90,2013-05-26 23:53:00
7:53 PM,84.0,64.9,53,29.64,10.0,ENE,13.8,-,N/A,,Clear,60,2013-05-27 00:53:00
8:53 PM,77.0,66.0,69,29.64,10.0,NE,9.2,-,N/A,,Clear,40,2013-05-27 01:53:00
9:53 PM,73.0,66.0,79,29.64,10.0,NNE,11.5,-,N/A,,Clear,20,2013-05-27 02:53:00
10:53 PM,71.1,66.0,84,29.67,10.0,North,10.4,-,N/A,,Clear,360,2013-05-27 03:53:00
11:53 PM,69.1,64.9,87,29.68,9.0,North,9.2,-,N/A,,Clear,350,2013-05-27 04:53:00